Terminal Aerodrome Forecast
Issued by NWS

Home | Current Version | Previous Version | Graphics & Text | Print | Product List | Glossary On
Versions: 1 2 3 4 5 6 7 8 9 10 11 12 13 14 15 16 17 18 19 20 21 22 23 24 25 26 27 28 29 30
000
FTUS43 KBIS 252158 AAA
TAFDIK
TAF AMD
KDIK 252158Z 2522/2618 27013G21KT P6SM VCSH BKN035
      TEMPO 2522/2601 1SM -SHSN
     FM260400 31008KT P6SM BKN025
     FM261500 24010KT P6SM BKN060=

USA.gov is the U.S. government's official web portal to all federal, state and local government web resources and services.